Theta_e
316 314 315 314 314 312 312 311 310 311 312 311 312 312 313 312 309 310 310 308 306 307 306 307 307 305 304 302 302 300 299 301 301 303 303 304 303 303 303 302 300 301
315 313 311 312 310 308 310 311 310 311 310 309 310 309 308 309 306 307 306 306 304 305 304 305 305 306 304 304 302 302 301 302 303 303 304 303 303 303 302 301 301 300
313 312 312 312 312 310 310 308 309 309 309 307 305 307 308 305 305 303 304 304 303 301 301 303 304 305 305 303 303 302 302 301 301 301 302 303 302 302 302 300 299 299
312 312 312 311 311 309 307 307 306 306 304 304 305 305 305 303 303 302 301 300 301 298 298 300 302 302 302 302 301 299 299 300 299 298 299 300 299 299 298 298 298 296
310 310 310 310 307 307 306 308 307 306 306 305 301 301 301 301 302 301 300 297 298 295 296 296 296 298 298 299 299 298 297 298 297 298 297 296 296 297 296 295 295 295
306 309 308 308 307 307 306 307 307 306 304 301 302 301 302 302 300 299 297 296 294 295 295 293 294 293 295 295 295 295 295 296 295 297 297 297 295 294 297 294 293 293
306 305 305 305 305 306 306 305 305 304 304 302 299 299 299 298 297 297 297 296 295 295 295 294 294 293 293 294 295 295 296 298 297 298 297 295 294 294 294 295 294 294
304 302 304 304 305 304 305 303 301 301 300 298 299 296 297 297 296 295 294 296 296 295 294 294 295 296 292 294 296 297 297 299 296 296 295 292 294 294 292 292 292 292
304 303 304 303 305 302 302 299 297 295 296 298 297 294 292 296 295 294 295 295 295 294 295 295 295 294 293 294 296 296 296 297 296 294 294 293 292 291 292 291 290 289
304 303 303 303 304 301 300 297 295 295 294 296 295 294 294 291 295 295 294 295 294 293 294 294 295 293 293 295 296 296 295 296 294 293 293 291 291 290 288 287 287 287
302 301 302 301 301 298 297 295 294 294 293 295 294 293 293 292 291 293 294 294 295 294 295 295 296 296 296 295 295 295 295 295 294 293 292 291 290 288 286 286 286 286
302 300 300 299 298 296 295 294 293 293 293 292 295 295 292 292 293 291 293 293 293 295 295 295 295 295 295 295 294 294 294 293 292 291 289 288 288 287 286 285 286 285
301 300 298 296 295 293 292 292 293 292 293 293 291 293 292 291 291 291 289 292 292 294 294 293 293 292 293 293 292 292 291 290 288 286 284 285 284 284 284 285 284 284
296 294 295 295 292 291 291 291 291 291 291 290 290 291 291 291 291 291 288 290 290 292 291 290 290 290 291 290 288 287 286 286 285 285 284 283 282 282 282 282 284 285
293 292 291 291 290 291 290 290 290 289 289 289 289 288 289 288 289 289 288 288 289 289 288 288 288 288 288 287 287 286 285 285 284 283 283 283 282 282 282 282 282 282
291 290 290 290 290 291 290 289 289 288 288 288 288 288 287 287 288 288 288 288 288 288 287 287 287 285 286 288 288 286 285 284 283 283 283 282 282 282 282 282 283 282
290 290 289 290 290 289 288 289 288 288 288 288 287 287 287 287 287 288 287 288 288 288 287 286 285 286 289 291 290 287 283 283 284 283 282 282 281 282 282 282 283 283
290 289 290 289 289 289 288 288 288 288 288 287 287 286 286 286 287 287 287 287 287 286 285 285 285 289 292 291 291 289 286 282 282 283 283 282 281 281 282 284 283 283
289 289 290 289 289 288 288 287 287 288 287 287 287 287 286 287 287 287 287 286 286 285 284 284 284 291 291 292 291 290 288 284 283 282 283 282 282 283 283 284 283 282
289 289 289 288 287 287 287 287 287 287 287 287 287 286 287 286 286 286 286 286 285 284 284 284 284 289 290 290 290 289 288 285 282 283 282 282 282 283 284 283 282 282
288 288 288 287 287 287 287 287 287 287 286 286 286 287 286 286 286 286 285 284 283 283 283 284 286 290 290 289 289 289 288 285 282 283 282 282 283 283 283 282 281 284
288 288 287 287 286 286 287 287 286 286 286 286 285 285 284 284 284 284 284 283 283 283 283 284 285 289 289 289 289 288 286 282 282 282 281 282 283 283 282 282 283 283
288 288 287 287 286 286 286 286 286 286 285 285 285 284 284 284 283 283 283 282 282 282 283 283 284 287 288 288 287 287 284 281 282 282 282 282 282 282 282 283 283 283
288 287 287 286 286 286 286 286 285 285 284 285 285 283 283 283 282 282 282 281 281 281 282 283 283 285 287 287 286 286 284 281 281 282 281 281 281 282 282 282 283 283
286 286 286 286 286 286 286 285 284 284 283 283 283 283 282 282 282 281 280 280 280 281 282 283 283 284 286 286 285 285 283 281 281 281 281 281 281 281 282 281 281 282
285 286 286 286 285 284 283 283 282 282 282 282 282 282 281 281 281 281 280 280 280 281 282 282 282 283 285 286 285 285 284 282 282 281 280 280 280 280 279 280 280 280
Wind_Speed
9 8 10 9 9 7 8 8 7 7 7 6 7 7 8 6 6 6 5 4 5 5 5 5 4 4 4 4 4 4 4 5 4 5 5 5 4 3 4 3 3 3
10 10 8 8 6 5 6 7 8 8 7 7 6 6 5 5 5 6 5 5 5 6 5 5 5 5 5 5 5 5 4 4 5 3 5 4 4 4 4 4 3 3
9 9 10 10 10 9 8 6 7 6 7 7 5 6 6 5 6 5 5 6 6 6 5 5 5 5 6 6 6 6 6 5 5 5 5 6 5 5 5 4 3 4
9 10 9 8 7 8 6 7 5 5 5 6 7 6 6 5 5 6 5 6 6 5 5 5 6 5 6 6 6 5 5 6 5 5 5 3 3 3 1 2 1 1
9 8 6 7 5 6 6 7 8 7 7 7 5 5 5 6 6 6 7 6 6 6 5 5 4 5 5 5 6 5 5 5 5 5 4 3 4 4 3 3 3 2
5 6 7 7 7 8 8 8 8 7 6 5 7 5 6 7 7 8 7 7 6 7 6 5 5 5 6 6 6 5 6 5 4 5 5 5 4 3 5 3 3 1
6 5 6 6 6 7 8 7 7 7 6 6 5 6 7 7 7 7 7 7 7 7 8 7 6 5 5 6 6 6 5 6 6 6 6 4 4 2 0 1 2 3
6 5 6 6 7 7 7 7 6 6 7 7 8 6 7 7 7 6 6 7 7 7 6 6 6 6 5 6 7 7 6 6 5 5 4 3 3 1 1 2 2 2
6 6 7 7 9 7 7 7 6 5 6 8 7 7 5 7 7 7 7 7 7 7 7 6 6 6 6 6 6 6 6 5 5 4 4 4 4 4 3 3 2 2
6 6 8 8 9 7 7 6 6 6 6 7 7 6 7 4 6 7 7 7 8 6 6 6 6 5 4 4 5 5 5 6 5 5 4 4 4 4 3 3 3 3
6 6 7 7 7 6 7 7 7 7 6 7 7 6 6 7 5 6 7 8 8 7 6 6 5 5 6 5 5 5 6 6 5 3 3 4 4 4 5 5 4 3
8 7 7 7 7 7 7 7 7 6 6 5 7 8 6 5 7 6 7 7 7 6 5 5 5 6 5 5 6 5 6 5 5 5 5 5 5 4 4 4 3 2
8 8 6 6 6 6 5 5 6 6 7 7 5 7 7 6 5 7 5 7 6 6 5 5 5 4 5 5 6 6 6 5 4 3 3 3 2 3 2 2 2 1
7 5 6 6 5 5 5 5 5 5 5 5 6 7 6 6 7 7 5 6 6 7 5 4 4 4 5 6 6 7 6 5 4 4 4 2 2 2 2 2 1 1
6 5 5 6 6 6 6 6 5 5 5 6 5 5 5 5 5 6 7 6 6 6 5 4 5 5 5 6 7 7 6 6 4 3 3 3 3 3 3 3 3 2
6 6 6 6 7 7 7 6 6 6 6 6 6 5 5 5 6 5 6 7 7 7 5 5 4 3 6 9 8 7 6 6 4 4 3 3 3 3 3 3 3 3
7 7 7 8 7 7 7 7 7 7 7 7 6 6 6 6 7 7 6 6 7 7 7 5 4 3 9 10 11 10 8 7 6 4 3 3 3 4 3 3 4 3
7 8 8 8 8 8 8 7 7 8 8 8 7 7 7 7 7 7 7 6 7 7 6 5 4 6 10 10 10 10 8 7 5 5 4 4 3 3 4 4 4 4
7 9 8 9 8 8 7 7 8 8 8 8 8 7 7 8 7 8 7 7 8 8 7 4 4 8 9 11 11 11 10 7 6 5 6 4 4 4 4 4 4 4
8 8 9 8 8 8 8 8 8 8 8 7 7 7 8 7 7 8 8 8 8 8 7 5 4 8 11 11 11 11 11 9 6 6 6 5 5 5 5 4 4 4
10 9 9 8 8 9 8 8 8 7 8 8 8 8 9 9 9 9 8 8 8 7 7 6 5 9 11 12 13 12 12 8 6 6 6 5 5 5 4 4 4 4
10 10 9 8 8 9 9 9 9 9 10 8 7 7 6 6 6 7 8 8 7 7 8 7 6 11 12 13 13 12 11 7 6 6 6 5 5 5 4 4 3 3
10 11 11 11 10 10 10 10 10 9 8 7 9 8 8 8 7 7 7 8 8 6 8 7 6 10 13 13 13 12 9 7 6 6 6 6 5 4 4 4 3 4
8 9 10 10 10 11 10 8 6 5 7 7 9 10 9 7 7 8 6 6 7 7 7 9 7 10 14 14 14 13 8 6 5 6 6 5 5 4 4 3 4 7
6 6 7 8 9 8 8 9 8 7 6 6 7 7 8 7 8 8 7 6 6 6 8 10 8 10 14 14 14 12 8 5 5 5 5 4 3 2 2 2 3 4
5 7 7 8 8 7 7 7 7 8 8 8 7 7 8 7 7 8 9 7 6 6 6 7 9 7 10 15 14 13 10 5 4 5 5 3 2 1 1 2 2 2
Wind_Direction
188 185 193 193 196 187 176 179 184 183 188 179 180 181 180 178 168 174 180 178 183 183 186 183 170 167 163 158 161 150 158 172 176 175 171 170 186 177 194 218 191 198
193 189 190 188 181 176 182 181 179 182 185 185 183 169 174 172 191 178 184 186 180 189 182 177 172 167 163 163 160 156 162 168 185 177 166 171 189 180 210 212 197 190
187 186 186 186 186 187 183 178 173 179 177 181 173 173 180 182 176 182 178 174 177 182 180 174 166 168 167 166 165 164 170 175 178 181 164 188 177 181 216 194 198 182
193 190 186 187 182 177 165 161 170 169 162 167 188 184 172 176 168 170 168 166 160 159 155 152 165 165 165 164 160 167 173 181 175 161 168 157 167 178 159 119 113 68
184 182 182 177 167 155 156 167 174 177 180 179 163 165 159 162 165 163 160 158 147 138 129 134 142 154 154 156 160 160 168 159 154 148 140 146 153 127 140 133 141 167
179 176 172 168 165 160 170 179 180 177 172 165 174 160 165 162 157 158 156 149 145 134 129 132 135 143 147 149 151 153 157 149 155 140 137 139 153 159 152 149 148 134
170 163 166 160 158 170 173 181 179 175 170 161 142 167 157 156 155 158 154 147 142 141 142 145 143 145 149 143 141 146 151 139 134 128 137 155 155 181 111 166 192 185
165 163 160 162 168 174 177 176 172 168 157 149 166 167 162 154 154 152 147 146 141 143 146 149 149 149 157 145 144 144 144 145 145 143 140 145 127 124 109 114 105 88
155 170 170 174 175 178 176 168 161 153 156 160 161 160 164 154 153 151 149 142 139 144 147 154 153 155 162 146 149 147 148 140 130 126 135 136 131 146 121 107 100 98
174 177 178 180 181 177 169 163 158 161 164 157 155 152 152 155 150 148 144 143 141 145 150 153 153 150 143 147 151 144 138 138 132 129 133 132 138 152 152 141 165 168
185 183 184 180 176 165 167 163 166 160 161 154 149 151 150 145 149 148 143 144 149 153 155 153 154 149 154 156 142 137 132 128 123 115 126 147 156 172 177 172 174 179
187 184 185 178 169 169 169 168 159 158 156 155 155 149 147 155 153 157 150 149 144 147 148 151 154 159 152 139 132 122 116 113 127 155 167 169 182 183 180 174 170 194
186 186 174 167 167 165 155 154 158 156 154 156 154 146 151 157 159 146 153 144 145 139 151 156 154 151 148 139 131 124 127 141 151 144 151 147 166 170 164 158 173 170
177 166 163 164 156 148 152 152 144 148 149 140 139 146 157 160 158 150 146 140 142 143 145 145 153 155 152 148 139 135 133 140 149 154 137 106 109 75 98 102 103 96
160 159 147 143 146 145 146 149 148 144 139 139 139 143 145 147 139 135 137 132 126 132 141 149 153 162 164 156 138 131 132 136 141 137 123 112 87 69 57 61 56 61
155 149 151 147 148 155 156 151 149 148 146 143 143 144 139 138 132 133 138 142 137 135 135 138 143 170 168 147 136 136 129 117 115 114 115 108 94 68 49 46 45 41
154 159 152 159 161 150 152 155 155 153 147 142 140 144 145 143 138 140 142 142 139 136 132 131 147 169 147 130 129 123 114 118 126 122 112 103 97 89 71 37 32 33
164 159 161 162 158 161 161 161 153 154 150 147 146 148 149 141 144 147 142 139 129 120 120 133 150 150 129 122 119 119 118 117 118 116 107 101 105 93 81 66 45 32
163 167 166 165 168 158 157 157 161 155 151 151 159 155 142 149 151 144 144 135 129 127 126 132 142 131 121 119 117 117 116 110 109 108 104 100 84 77 71 65 57 50
168 169 171 170 159 154 155 162 165 166 155 149 143 144 147 144 145 143 139 137 131 126 126 133 130 124 116 113 112 110 110 104 104 97 89 83 76 72 69 61 55 50
168 169 168 166 161 156 159 165 167 157 154 154 153 154 155 155 152 144 140 131 127 126 127 125 126 117 110 106 104 102 101 98 98 94 90 83 75 67 63 59 42 46
169 166 162 163 163 162 164 167 168 166 156 151 141 132 123 122 115 122 132 131 130 129 123 117 113 107 103 102 100 98 97 93 94 93 89 80 67 56 55 46 48 40
174 167 166 166 166 166 170 168 163 157 149 144 138 140 140 138 137 133 131 130 131 131 122 115 107 102 99 97 95 95 94 93 95 92 83 79 67 58 48 40 32 33
173 169 165 164 165 170 166 160 149 137 144 149 146 145 139 138 131 124 122 123 128 128 128 118 109 99 95 92 90 87 87 96 97 97 91 79 66 54 54 40 29 32
157 157 159 161 165 161 156 153 152 146 134 125 124 121 124 127 128 123 119 114 118 123 122 112 107 100 98 95 92 90 85 89 94 95 93 82 79 63 60 65 38 20
150 151 153 157 152 134 132 137 132 131 138 130 125 126 128 127 123 123 122 122 122 117 111 106 106 100 101 103 100 97 95 94 91 93 96 98 93 128 101 40 59 18